Location: Pornichet
(47.2613°N, 2.3364°W)
Time: 19:20:22
(UTC+02:00)

ISS - Pass Details

Date: 25 August 2022
Orbit: 414 x 417 km, 51.6° (Epoch: 27 September)

Event Time Altitude Azimuth Distance (km) Brightness Sun altitude
Exits shadow 06:10:50 11° 198° (SSW) 1,430 -1.5 -11.4°
Maximum altitude 06:13:30 26° 141° (SE) 863 -2.1 -11.0°
Drops below altitude 10° 06:16:22 10° 82° (E) 1,501 0.3 -10.6°
Sets 06:18:40 0° 70° (ENE) 2,367 2.2 -10.3°
